sat.trackr.live / text

‹ back to catalog

STARLINK-34084

NORAD 63970 · 2025-099U

PAYLOAD ACTIVE UNKNOWN

§ Identity

Operator
Country
US
Launch date
2025-05-13
Launch site
AFETR
Launch vehicle
Mass (kg)
RCS (m²)

Purposes: comms

External: N2YO · Heavens-Above · Gunter

§ Orbital elements

Epoch: 2026-09-19T02:50:48.205536Z

Period
94.27 min
Inclination
43.0021°
Eccentricity
0.0001400
Mean motion
15.27580232 rev/d
Perigee alt
482.1 km
Apogee alt
484.0 km
Semi-major
6,861.2 km
B*
2.3400e-4
RAAN
163.4079°
Arg perigee
265.8457°
Mean anomaly
94.2235°
Rev number
7,692

§ Raw data

STARLINK-340841 63970U 25099U   26262.11861349  .00006182  00000+0  23400-3 0  99992 63970  43.0021 163.4079 0001400 265.8457  94.2235 15.27580232 76923

JSON: /api/v1/satellites/63970 · /tle

For live sub-satellite position, see the globe view (requires WebGL).

§ Visibility from observer

Set your observer location to see the next 7 days of passes ≥ 10°. The values pass through the URL so the page stays shareable.

No JS? Fill the form by hand. The geolocation button needs JavaScript.